La Crosse, WI

1:18 PM CDT on May 24, 2017 (GMT -0500)
La Crosse Municipal

Weather History for KLSE - April, 2013

Change the Weather History Date:

Tuesday, April 23, 2013

  Actual Average Record
Temperature  
Mean Temperature 37 °F 52 °F  
Max Temperature 44 °F 63 °F 86 °F (1960)
Min Temperature 30 °F 41 °F 20 °F (1910)
Degree Days  
Heating Degree Days 28 13  
Month to date heating degree days 609 416  
Since 1 July heating degree days 7133 6869  
Cooling Degree Days 0 0  
Month to date cooling degree days 0 0  
Year to date cooling degree days 0 0  
Moisture  
Dew Point 29 °F    
Average Humidity 71    
Maximum Humidity 92    
Minimum Humidity 49    
Precipitation  
Precipitation 0.04 in 0.12 in 0.77 in (1896)
Month to date precipitation 5.74 2.48  
Year to date precipitation 10.26 6.69  
Snow  
Snow 0.00 in 0.00 in 1.70 in (1910)
Month to date snowfall 4.2 1.5  
Since 1 July snowfall 59.8 43.1  
Snow Depth 0.00 in    
Sea Level Pressure  
Sea Level Pressure 30.04 in    
Wind  
Wind Speed 12 mph (NNW)    
Max Wind Speed 22 mph    
Max Gust Speed 26 mph    
Visibility 10 miles    
Events Rain    
T = Trace of Precipitation, MM = Missing Value Source: NWS Daily Summary

Daily Weather History Graph

Daily Weather History Graph

Search for Another Location

Airport or City:

Trip Planner

Search our weather history database for the weather conditions in past years. The results will help you decide how hot, cold, wet, or windy it might be!

Date:

Astronomy

Apr. 23, 2013 Rise Set
Actual Time 6:08 AM CDT 7:58 PM CDT
Civil Twilight 5:37 AM CDT 8:29 PM CDT
Nautical Twilight 5:00 AM CDT 9:07 PM CDT
Astronomical Twilight 4:19 AM CDT 9:48 PM CDT
Moon 5:50 PM CDT (4/23) 4:41 AM CDT (4/23)
Length of Visible Light 14h 51m
Length of Day
13h 50m
Waxing Gibbous, 94% of the Moon is Illuminated
Apr 23
Waxing Gibbous
Apr 25
Full
May 2
Last Quarter
May 9
New
May 17
First Quarter

Hourly Weather History & Observations

Time (CDT) Temp. Windchill Dew Point Humidity Pressure Visibility Wind Dir Wind Speed Gust Speed Precip Events Conditions
12:53 AM 39.0 °F 31.4 °F 37.0 °F 93% 29.98 in 6.0 mi NW 12.7 mph - 0.04 in Rain Rain
1:10 AM 37.4 °F 29.3 °F 35.6 °F 93% 29.95 in 9.0 mi NW 12.7 mph - 0.02 in Rain Light Rain
1:24 AM 37.4 °F 27.2 °F 35.6 °F 93% 29.96 in 10.0 mi NW 19.6 mph 26.5 mph 0.03 in Rain Light Rain
1:53 AM 37.0 °F 27.7 °F 34.0 °F 89% 29.98 in 10.0 mi NNW 16.1 mph - 0.03 in Rain Light Rain
2:03 AM 35.6 °F 25.2 °F 33.8 °F 93% 29.97 in 10.0 mi NW 18.4 mph - 0.00 in Rain Light Rain
2:53 AM 36.0 °F 26.3 °F 33.1 °F 89% 30.01 in 10.0 mi NW 16.1 mph - 0.01 in Rain Light Rain
3:53 AM 36.0 °F 27.5 °F 32.0 °F 86% 30.01 in 10.0 mi NW 12.7 mph - 0.01 in   Overcast
4:53 AM 36.0 °F 27.5 °F 32.0 °F 86% 30.02 in 10.0 mi NW 12.7 mph - N/A   Overcast
5:08 AM 35.6 °F 26.2 °F 30.2 °F 81% 30.00 in 10.0 mi NW 15.0 mph - N/A   Overcast
5:53 AM 36.0 °F 26.0 °F 32.0 °F 86% 30.05 in 10.0 mi NW 17.3 mph - N/A   Overcast
6:53 AM 36.0 °F 28.0 °F 30.9 °F 82% 30.04 in 10.0 mi NNW 11.5 mph - N/A   Overcast
7:53 AM 36.0 °F 26.7 °F 30.0 °F 79% 30.06 in 10.0 mi NNW 15.0 mph - N/A   Overcast
8:53 AM 36.0 °F 27.1 °F 30.0 °F 79% 30.06 in 10.0 mi NNW 13.8 mph - N/A   Overcast
9:53 AM 37.0 °F 28.1 °F 28.9 °F 73% 30.08 in 10.0 mi North 15.0 mph - N/A   Overcast
10:53 AM 37.9 °F 29.2 °F 28.9 °F 70% 30.09 in 10.0 mi North 15.0 mph 23.0 mph N/A   Overcast
11:53 AM 37.9 °F 28.2 °F 28.9 °F 70% 30.09 in 10.0 mi NNW 18.4 mph - N/A   Overcast
12:53 PM 41.0 °F 33.9 °F 28.9 °F 62% 30.07 in 10.0 mi NNW 12.7 mph - N/A   Overcast
1:53 PM 39.9 °F 32.9 °F 28.0 °F 63% 30.07 in 10.0 mi NNW 11.5 mph - N/A   Overcast
2:02 PM 39.2 °F 31.2 °F 28.4 °F 65% 30.05 in 10.0 mi NNW 13.8 mph - N/A   Overcast
2:53 PM 39.9 °F 31.8 °F 28.9 °F 65% 30.07 in 10.0 mi NW 15.0 mph - N/A   Overcast
3:53 PM 41.0 °F 32.5 °F 28.0 °F 60% 30.06 in 10.0 mi NW 17.3 mph - N/A   Overcast
4:53 PM 41.0 °F 33.9 °F 28.0 °F 60% 30.06 in 10.0 mi NW 12.7 mph - N/A   Overcast
5:53 PM 44.1 °F 38.6 °F 26.1 °F 49% 30.06 in 10.0 mi North 10.4 mph - N/A   Mostly Cloudy
6:53 PM 42.1 °F 34.5 °F 24.1 °F 49% 30.04 in 10.0 mi NNW 15.0 mph - N/A   Overcast
7:53 PM 39.9 °F 33.9 °F 24.1 °F 53% 30.06 in 10.0 mi NNW 9.2 mph - N/A   Overcast
8:53 PM 39.0 °F 32.3 °F 25.0 °F 57% 30.07 in 10.0 mi NNW 10.4 mph - N/A   Scattered Clouds
9:53 PM 37.9 °F 32.1 °F 24.1 °F 57% 30.07 in 10.0 mi NW 8.1 mph - N/A   Clear
10:53 PM 34.0 °F - 24.1 °F 67% 30.08 in 10.0 mi Calm Calm - N/A   Clear
11:53 PM 32.0 °F - 24.1 °F 73% 30.08 in 10.0 mi Calm Calm - N/A   Clear